IRIDIUM 33 DEB, 34652

Orbit data source: Space-Track

IRIDIUM 33 DEB, 34652 is space debris in LEO originally from a launch on Sun, 14 Sep 1997 UTC launched from the Tyuratam Missile And Space Complex (TTMTR). The debris from Iridium 33, an American commercial communications satellite, has been tracked extensively since its accidental collision with the defunct Russian satellite Cosmos 2251 in 2009. This event, occurring at high speed in low Earth orbit (LEO), generated thousands of pieces of space debris, significantly increasing the risk of further collisions. The Iridium 33 debris cloud has impacted space traffic management and orbital debris mitigation strategies, making it a subject of ongoing study in space situational awareness.

Loading next visibility...
Identifier
34652, 1997-051KD
Orbit
LEO
Country
Flag of USUS
Related business
Manufacturer
Unknown
Mission
Spacecraft
Bus & Motor
Unknown
Mass
Unknown
Launch date (UTC)
1997-09-14 (29 years ago)
Launch vehicle
Unknown
Launch site
Tyuratam Missile And Space Complex (TTMTR)
Object type
Payload
Rocket body
Debris
Shape & HBR
Unknown shape, 0.1 m
Radar Cross Section
Medium (>0.1 m² and <1 m²)

Expand to show TLE details & history
Last TLE update: 1 day ago

TLE from 1 day ago
0 IRIDIUM 33 DEB
1 34652U 97051KD  26262.62665935  .00002312  00000-0  43282-3 0  9992
2 34652  86.3320 214.6786 0030219  58.3037 116.4513 14.64125198925917
Epoch: 2026-09-19T15:02Z
TLE epoch observation values (Epoch: 2026-09-19T15:02:23.367Z)
Latitude
4.83504°
Longitude
170.23973°
Altitude
692.034 km
Speed
7.505 km/s
True Right ascension
02h 17m 28s
True Declination
4° 48' 22"
Sunlit
Object was in full shadow at epoch
Visualization orbit readout
Latitude
Unknown
Longitude
Unknown
Altitude
Unknown
Speed
Unknown
Apparent Right ascension
Unknown
Apparent Declination
Unknown
Sunlit
N/A
Visualization observer readout
Local Sidereal Time
12:54:03
Azimuth
Unknown
Elevation
Unknown
Doppler factor
Unknown
Orbital elements
Apogee altitude
698.128 km
Perigee altitude
655.49 km
Semi-major axis
7,054.946 km
Eccentricity
0.00302
Inclination
86.332°
RAAN
214.6786°
Arg. of periapsis
58.3037°
True anomaly
116.76081°
Mean anomaly
116.4513°
Eccentric anomaly
116.60611°
Mean motion
3.66271 °/min
Orbital period
98.29 mins
BSTAR
0.00043282

Documentation

Showing up to 5 results
|